User: anonymous   Login
Location: Camp Creek
(33.9000°N, 111.8167°W)
Time: 07:57:09
(UTC-07:00)
Language:

DELTA 2 R/B (1) - Orbit

View from above orbital plane
View from above orbital plane
View from above satellite
View from above satellite

Ground track
Ground track

The orbit data is extracted from the following two-line orbital elements,

1 27665U 03005C   16242.23001182 -.00000089  00000-0 -14460-5 0  9995
2 27665  39.5754 156.8249 0009298 178.8683 293.1166 14.28416606709175
Epoch (UTC): 29 August 2016 05:31:13
Eccentricity: 0.0009298
inclination: 39.5754°
perigee height: 790 km
apogee height: 804 km
right ascension of ascending node: 156.8249°
argument of perigee: 178.8683°
revolutions per day: 14.28416606
mean anomaly at epoch: 293.1166°
orbit number at epoch: 70917

The dashed part of the orbit path shows where the satellite is in the earth's shadow,  

DLR